• Em Portugal
  • Lista de países
  • Para 7 dias
  • Temperatura da água
  • Mapas de satélite
  • Mapa do tempo
  • Widgets de tempo
  • user-avatar
    Iniciar Sessão

    Previsão horária em Oran

    Hoje, 20 Fevereiro, Terça-feira

    Tempo Temperatura Precipitação Vento Pressão Humidade
    00:00 +10°C° 0 mm 1 m/s 752 mmHg 92%
    01:00 +10°C° 0 mm 1 m/s 752 mmHg 92%
    02:00 +8°C° 0 mm 0 m/s 751 mmHg 92%
    03:00 +8°C° 0 mm 0 m/s 751 mmHg 92%
    04:00 +9°C° 0 mm 1 m/s 751 mmHg 92%
    05:00 +9°C° 0 mm 1 m/s 751 mmHg 91%
    06:00 +9°C° 0 mm 1 m/s 751 mmHg 91%
    07:00 +10°C° 0 mm 2 m/s 751 mmHg 85%
    08:00 +11°C° 0 mm 3 m/s 751 mmHg 79%
    09:00 +13°C° 0 mm 3 m/s 751 mmHg 73%
    10:00 +14°C° 0 mm 3 m/s 751 mmHg 67%
    11:00 +15°C° 0 mm 4 m/s 751 mmHg 61%
    12:00 +17°C° 0 mm 4 m/s 751 mmHg 55%
    13:00 +17°C° 0 mm 5 m/s 751 mmHg 54%
    14:00 +17°C° 0 mm 5 m/s 750 mmHg 54%
    15:00 +17°C° 0 mm 5 m/s 750 mmHg 53%
    16:00 +15°C° 0 mm 4 m/s 750 mmHg 61%
    17:00 +14°C° 0 mm 4 m/s 750 mmHg 69%
    18:00 +12°C° 0 mm 3 m/s 749 mmHg 78%
    19:00 +12°C° 0 mm 3 m/s 749 mmHg 78%
    20:00 +12°C° 0 mm 3 m/s 750 mmHg 78%
    21:00 +11°C° 0 mm 3 m/s 750 mmHg 78%
    22:00 +11°C° 0 mm 3 m/s 749 mmHg 77%
    23:00 +11°C° 0 mm 3 m/s 749 mmHg 75%

    Amanhã, 21 Fevereiro, Quarta-feira

    Tempo Temperatura Precipitação Vento Pressão Humidade
    00:00 +11°C° 0 mm 3 m/s 749 mmHg 74%
    01:00 +10°C° 0 mm 3 m/s 748 mmHg 73%
    02:00 +10°C° 0 mm 3 m/s 748 mmHg 72%
    03:00 +10°C° 0 mm 3 m/s 747 mmHg 71%
    04:00 +10°C° 0 mm 2 m/s 747 mmHg 71%
    05:00 +9°C° 0 mm 2 m/s 746 mmHg 71%
    06:00 +9°C° 0 mm 2 m/s 746 mmHg 71%
    07:00 +12°C° 0 mm 2 m/s 746 mmHg 66%
    08:00 +13°C° 0 mm 2 m/s 746 mmHg 60%
    09:00 +15°C° 0 mm 2 m/s 746 mmHg 54%
    10:00 +16°C° 0 mm 3 m/s 745 mmHg 53%
    11:00 +17°C° 0 mm 3 m/s 745 mmHg 51%
    12:00 +17°C° 0 mm 4 m/s 745 mmHg 50%
    13:00 +17°C° 0 mm 4 m/s 744 mmHg 53%
    14:00 +16°C° 0 mm 5 m/s 744 mmHg 56%
    15:00 +16°C° 0 mm 6 m/s 743 mmHg 59%
    16:00 +15°C° 0,1 mm 5 m/s 743 mmHg 66%
    17:00 +13°C° 0,1 mm 5 m/s 743 mmHg 73%
    18:00 +12°C° 0,1 mm 4 m/s 744 mmHg 80%
    19:00 +12°C° 0,1 mm 4 m/s 744 mmHg 82%
    20:00 +11°C° 0,1 mm 3 m/s 744 mmHg 84%
    21:00 +11°C° 0,1 mm 3 m/s 745 mmHg 86%
    22:00 +10°C° 0,3 mm 3 m/s 745 mmHg 87%
    23:00 +10°C° 0,3 mm 4 m/s 745 mmHg 88%

    Depois de amanhã, 22 Fevereiro, Quinta-feira

    Tempo Temperatura Precipitação Vento Pressão Humidade
    00:00 +8°C° 0,3 mm 4 m/s 744 mmHg 90%
    01:00 +8°C° 0,3 mm 5 m/s 744 mmHg 89%
    02:00 +8°C° 0,3 mm 5 m/s 744 mmHg 89%
    03:00 +7°C° 0,3 mm 5 m/s 744 mmHg 89%
    04:00 +7°C° 0,1 mm 5 m/s 744 mmHg 87%
    05:00 +7°C° 0,1 mm 4 m/s 744 mmHg 86%
    06:00 +8°C° 0,1 mm 3 m/s 744 mmHg 84%
    07:00 +9°C° 0,1 mm 3 m/s 744 mmHg 80%
    08:00 +9°C° 0,1 mm 2 m/s 745 mmHg 75%
    09:00 +10°C° 0,1 mm 2 m/s 745 mmHg 71%
    10:00 +12°C° 0,1 mm 2 m/s 745 mmHg 66%
    11:00 +13°C° 0,1 mm 2 m/s 745 mmHg 61%
    12:00 +14°C° 0,1 mm 1 m/s 745 mmHg 56%
    13:00 +14°C° 0 mm 2 m/s 745 mmHg 55%
    14:00 +13°C° 0 mm 3 m/s 744 mmHg 55%
    15:00 +14°C° 0 mm 4 m/s 744 mmHg 54%
    16:00 +12°C° 0 mm 3 m/s 744 mmHg 61%
    17:00 +12°C° 0 mm 2 m/s 744 mmHg 67%
    18:00 +10°C° 0 mm 2 m/s 744 mmHg 74%
    19:00 +9°C° 0 mm 2 m/s 744 mmHg 76%
    20:00 +9°C° 0 mm 2 m/s 744 mmHg 78%
    21:00 +9°C° 0 mm 2 m/s 744 mmHg 80%
    22:00 +8°C° 0 mm 2 m/s 744 mmHg 79%
    23:00 +8°C° 0 mm 2 m/s 744 mmHg 79%

    23 Fevereiro, Sexta-feira

    Tempo Temperatura Precipitação Vento Pressão Humidade
    00:00 +8°C° 0 mm 2 m/s 744 mmHg 78%
    01:00 +8°C° 0 mm 2 m/s 744 mmHg 78%
    02:00 +8°C° 0 mm 2 m/s 744 mmHg 78%
    03:00 +8°C° 0 mm 2 m/s 744 mmHg 78%
    04:00 +7°C° 0 mm 2 m/s 744 mmHg 79%
    05:00 +7°C° 0 mm 2 m/s 744 mmHg 79%
    06:00 +7°C° 0 mm 2 m/s 744 mmHg 79%
    07:00 +8°C° 0 mm 2 m/s 744 mmHg 72%
    08:00 +10°C° 0 mm 2 m/s 744 mmHg 65%
    09:00 +13°C° 0 mm 2 m/s 745 mmHg 58%
    10:00 +13°C° 0 mm 3 m/s 744 mmHg 54%
    11:00 +14°C° 0 mm 4 m/s 744 mmHg 50%
    12:00 +15°C° 0 mm 4 m/s 744 mmHg 46%
    13:00 +15°C° 0 mm 5 m/s 744 mmHg 46%
    14:00 +16°C° 0 mm 6 m/s 743 mmHg 46%
    15:00 +16°C° 0 mm 7 m/s 743 mmHg 46%
    16:00 +14°C° 0 mm 7 m/s 743 mmHg 52%
    17:00 +12°C° 0 mm 7 m/s 743 mmHg 59%
    18:00 +10°C° 0 mm 7 m/s 743 mmHg 65%
    19:00 +9°C° 0 mm 6 m/s 743 mmHg 68%
    20:00 +9°C° 0 mm 5 m/s 743 mmHg 70%
    21:00 +8°C° 0 mm 5 m/s 744 mmHg 73%
    22:00 +8°C° 0 mm 4 m/s 744 mmHg 73%
    23:00 +8°C° 0 mm 4 m/s 744 mmHg 73%

    24 Fevereiro, Sábado

    Tempo Temperatura Precipitação Vento Pressão Humidade
    00:00 +8°C° 0 mm 4 m/s 743 mmHg 73%
    01:00 +9°C° 0 mm 3 m/s 743 mmHg 72%
    02:00 +9°C° 0 mm 3 m/s 743 mmHg 72%
    03:00 +9°C° 0 mm 3 m/s 742 mmHg 72%
    04:00 +8°C° 0 mm 3 m/s 742 mmHg 74%
    05:00 +8°C° 0 mm 3 m/s 742 mmHg 75%
    06:00 +8°C° 0 mm 3 m/s 742 mmHg 77%
    07:00 +9°C° 0 mm 3 m/s 743 mmHg 71%
    08:00 +11°C° 0 mm 3 m/s 743 mmHg 64%
    09:00 +12°C° 0 mm 3 m/s 743 mmHg 58%
    10:00 +13°C° 0 mm 3 m/s 744 mmHg 56%
    11:00 +14°C° 0 mm 3 m/s 744 mmHg 53%
    12:00 +15°C° 0 mm 4 m/s 744 mmHg 50%
    13:00 +15°C° 0 mm 4 m/s 744 mmHg 51%
    14:00 +15°C° 0 mm 4 m/s 744 mmHg 53%
    15:00 +16°C° 0 mm 5 m/s 744 mmHg 54%
    16:00 +14°C° 0 mm 4 m/s 744 mmHg 61%
    17:00 +13°C° 0 mm 4 m/s 745 mmHg 68%
    18:00 +12°C° 0 mm 3 m/s 745 mmHg 76%
    19:00 +11°C° 0 mm 3 m/s 746 mmHg 80%
    20:00 +10°C° 0 mm 2 m/s 747 mmHg 84%
    21:00 +9°C° 0 mm 2 m/s 747 mmHg 88%
    22:00 +9°C° 0 mm 2 m/s 748 mmHg 89%
    23:00 +9°C° 0 mm 1 m/s 748 mmHg 89%

    25 Fevereiro, Domingo

    Tempo Temperatura Precipitação Vento Pressão Humidade
    00:00 +9°C° 0 mm 1 m/s 748 mmHg 90%
    01:00 +9°C° 0 mm 1 m/s 748 mmHg 90%
    02:00 +9°C° 0 mm 1 m/s 748 mmHg 90%
    03:00 +8°C° 0 mm 1 m/s 748 mmHg 90%
    04:00 +8°C° 0 mm 1 m/s 748 mmHg 90%
    05:00 +8°C° 0 mm 1 m/s 748 mmHg 90%
    06:00 +8°C° 0 mm 1 m/s 748 mmHg 90%
    07:00 +10°C° 0 mm 1 m/s 748 mmHg 81%
    08:00 +12°C° 0 mm 2 m/s 749 mmHg 72%
    09:00 +14°C° 0 mm 2 m/s 749 mmHg 64%
    10:00 +16°C° 0 mm 2 m/s 749 mmHg 58%
    11:00 +18°C° 0 mm 1 m/s 749 mmHg 51%
    12:00 +19°C° 0 mm 1 m/s 748 mmHg 45%
    13:00 +19°C° 0 mm 2 m/s 748 mmHg 44%
    14:00 +19°C° 0 mm 2 m/s 748 mmHg 43%
    15:00 +20°C° 0 mm 3 m/s 747 mmHg 42%
    16:00 +18°C° 0 mm 3 m/s 747 mmHg 48%
    17:00 +17°C° 0 mm 3 m/s 747 mmHg 54%
    18:00 +14°C° 0 mm 4 m/s 747 mmHg 60%
    19:00 +13°C° 0 mm 3 m/s 747 mmHg 62%
    20:00 +13°C° 0 mm 3 m/s 747 mmHg 64%
    21:00 +12°C° 0 mm 3 m/s 747 mmHg 66%
    22:00 +12°C° 0 mm 3 m/s 746 mmHg 65%
    23:00 +12°C° 0 mm 3 m/s 746 mmHg 65%
    Mostrar mais